Flag for United Kingdom Weather past 2 weeks in Plymouth, England, United Kingdom

Now
55 °F

Scattered clouds.


Feels Like: 53 °F
Forecast: 53 / 61 °F
Wind: 9 mph from Southwest

Location: Exeter Airport

Current Time: Oct 25, 2014 at 12:45:21 PM

Latest Report: Oct 25, 2014 at 12:20 PM


Visibility: N/A

Pressure: 30.09 "Hg

Humidity: 77%

Dew point: 48 °F

Location of PlymouthLocation

Historic Weather in Plymouth — Graph

°F

Plymouth temperature yesterday

Maximum temperature yesterday: 63 °F (at 1:50 PM)
Minimum temperature yesterday: 46 °F (at 10:20 PM)
Average temperature yesterday: 56 °F

Past Weeks' High & Low Weather Summary

 TemperatureHumidityPressure
High66 °F (Oct 19, 1:50 PM)100% (Oct 10, 11:50 PM)30.36 "Hg (Oct 10, 11:50 PM)
Low39 °F (Oct 12, 6:20 AM)55% (Oct 10, 4:20 PM)29.47 "Hg (Oct 16, 1:20 AM)
Average55 °F86%29.85 "Hg
* Reported Oct 10 11:20 AM — Oct 25 11:50 AM, Plymouth, Weather by CustomWeather, © 2014

Note: Actual official high and low records may vary slightly from our data, if they occured in-between our weather recording intervals... More about our weather records

Advertising

Plymouth weather history for previous 24 hours

 ConditionsComfort  
Time TempWeatherWind HumidityBarometerVisibility
11:50 AM
Oct 25
55 °FScattered showers. Partly sunny.10 mph77%30.09 "HgN/A
11:20 AM55 °FPartly sunny.12 mph77%30.09 "HgN/A
10:50 AM55 °FPartly sunny.10 mph77%30.09 "HgN/A
10:20 AM54 °FPartly sunny.7 mph77%30.09 "HgN/A
9:50 AM54 °FPartly sunny.9 mph77%30.09 "HgN/A
9:20 AM54 °FPartly sunny.8 mph77%30.07 "HgN/A
8:50 AM52 °FPassing clouds.8 mph77%30.07 "HgN/A
8:20 AM52 °FPassing clouds.7 mph77%30.07 "HgN/A
7:50 AM52 °FPassing clouds.7 mph77%30.04 "HgN/A
7:20 AM52 °FPassing clouds.6 mph82%30.04 "HgN/A
6:50 AM52 °FPassing clouds.6 mph82%30.04 "HgN/A
6:20 AM52 °FPassing clouds.5 mph82%30.04 "HgN/A
1:50 AM50 °FPassing clouds.6 mph88%30.04 "HgN/A
1:20 AM50 °FPassing clouds.6 mph88%30.04 "HgN/A
12:50 AM50 °FPassing clouds.6 mph88%30.04 "HgN/A
12:20 AM50 °FPassing clouds.6 mph88%30.04 "HgN/A
11:50 PM
Oct 24
48 °FPassing clouds.No wind94%30.04 "HgN/A
11:20 PM48 °FPassing clouds.3 mph94%30.04 "HgN/A
10:50 PM48 °FPassing clouds.3 mph94%30.01 "HgN/A
10:20 PM46 °FPassing clouds.1 mph93%30.01 "HgN/A
9:50 PM48 °FPassing clouds.1 mph94%30.01 "HgN/A
9:20 PM48 °FPassing clouds.5 mph94%30.01 "HgN/A
8:50 PM50 °FPassing clouds.6 mph88%30.01 "HgN/A
8:20 PM52 °FPassing clouds.5 mph88%29.98 "HgN/A
7:50 PM52 °FPassing clouds.2 mph88%29.98 "HgN/A
7:20 PM52 °FPassing clouds.No wind94%29.98 "HgN/A
6:50 PM54 °FScattered clouds.3 mph88%29.98 "HgN/A
6:20 PM54 °FPassing clouds.6 mph88%29.95 "HgN/A
5:50 PM55 °FPassing clouds.5 mph82%29.95 "HgN/A
5:20 PM55 °FPassing clouds.6 mph88%29.95 "HgN/A
4:50 PM57 °FScattered clouds.12 mph88%29.95 "HgN/A
4:20 PM59 °FScattered clouds.10 mph88%29.92 "HgN/A
3:50 PM61 °FScattered showers. Scattered clouds.7 mph88%29.92 "HgN/A
3:20 PM61 °FScattered showers. Partly sunny.10 mph83%29.92 "Hg5 mi
2:50 PM63 °FPartly sunny.10 mph83%29.92 "HgN/A
2:20 PM61 °FPartly sunny.12 mph88%29.92 "HgN/A
1:50 PM63 °FPartly sunny.12 mph83%29.92 "HgN/A
1:20 PM61 °FPartly sunny.8 mph88%29.92 "HgN/A
12:50 PM61 °FPartly sunny.7 mph88%29.95 "HgN/A
12:20 PM61 °FPartly sunny.9 mph88%29.95 "HgN/A
Weather by CustomWeather, © 2014

See weather overviewHow to use our weather pages